Content
SEND FEEDBACK

Daily
Averages
Monthly
Summary
United States of America

NEW YORK - CENTRAL PARK, NEW YORK


Home > North America > United States > New York
Elevation: 14 feet     Latitude: 40 47N     Longitude: 073 58W

WEATHER
 
SELECT A DAY
Number of Records: 148,039;   Date Range: 11/1/95 - 7/23/14
 
SHARE

PRINT THIS DATA

[ ← Previous Day ]
WEATHER ALMANAC - JANUARY 14, 2013
[ Next Day → ]
[ °C ]   °F
Weather ElementAverageHighLow
Temperature51.3 °F57 °F (6:51 am)37.9 °F (11:51 pm)
Dewpoint44.5 °F53.1 °F (9:51 am)28 °F (8:51 pm)
Humidity79.6 %100 % (4:36 am)48 % (3:51 pm)
Barometer30.09 in30.31 in (11:51 pm)29.93 in (5:51 am)
Wind Speed4.5 mph10.4 mph (12:51 pm)
Wind Gust18.4 mph (6:48 am)
Weather ElementAverage
Visibility5.5 mi
Wind DirectionESE (128.8 °)

Weather ElementTotal
Precipitation0.09 in
Heating Degree Days17.6 (Base 65)
Averaged from 34 records on January 14, 2013
WEATHER CONDITIONS BREAKOUT
WIND DIRECTION BREAKOUT
WEATHER BY HOUR - JANUARY 14, 2013
[ °C ]   °F
Local TimeTemperatureDewpointHumidityBarometerVisibilityWind DirectionWind SpeedGust SpeedPrecipitationEventsConditions
12:51 AM50.0 °F48.9 °F96 %30.01 in2.0 miCalmOvercast
1:04 AM50.0 °F48.2 °F94 %30.03 in3.0 miCalmOvercast
1:51 AM50.0 °F48.9 °F96 %30.01 in3.0 miCalmOvercast
2:51 AM50.0 °F48.9 °F96 %30.01 in4.0 miSouth (170°)3.5 mphOvercast
3:22 AM51.1 °F50.0 °F96 %30.02 in3.0 miVariable3.5 mphOvercast
3:36 AM51.1 °F50.0 °F96 %30.02 in2.5 miCalmOvercast
3:46 AM51.8 °F50.0 °F94 %30.01 in3.0 miCalmOvercast
3:51 AM51.1 °F50.0 °F96 %29.99 in2.5 miCalmOvercast
4:36 AM50.0 °F50.0 °F100 %30.01 in1.0 miCalmOvercast
4:47 AM50.0 °F50.0 °F100 %30.01 in0.8 miWNW (300°)3.5 mphOvercast
4:51 AM50.0 °F50.0 °F100 %29.99 in0.5 miWest (280°)3.5 mphFogFog
5:51 AM50.0 °F50.0 °F100 %29.93 in1.5 miSE (140°)6.9 mphOvercast
6:48 AM55.4 °F50.0 °F82 %30.03 in2.0 miWNW (290°)9.2 mph18.4 mphHaze
6:51 AM57.0 °F50.0 °F77 %30.01 in1.8 miWNW (290°)6.9 mph18.4 mphHaze
7:34 AM55.9 °F50.0 °F80 %30.05 in1.0 miWest (280°)6.9 mphHaze
8:18 AM53.1 °F50.0 °F89 %30.06 in2.5 miCalmOvercast
8:42 AM57.0 °F50.0 °F77 %30.06 in4.0 miWest (280°)5.8 mphHaze
8:51 AM54.0 °F51.1 °F90 %30.05 in4.0 miCalmOvercast
9:16 AM57.0 °F51.1 °F81 %30.08 in5.0 miVariable5.8 mphHaze
9:51 AM54.0 °F53.1 °F97 %30.06 in7.0 miWNW (290°)6.9 mphClear
10:51 AM55.0 °F50.0 °F83 %30.06 in7.0 miWNW (290°)6.9 mphClear
11:51 AM55.9 °F48.9 °F77 %30.08 in10.0 miVariable3.5 mphOvercast
12:51 PM55.9 °F42.1 °F60 %30.08 in10.0 miNorth (360°)10.4 mph16.1 mphOvercast
1:51 PM55.0 °F41.0 °F59 %30.12 in10.0 miNorth
2:51 PM54.0 °F39.0 °F57 %30.16 in10.0 miNW (310°)6.9 mphOvercast
3:51 PM53.1 °F34.0 °F48 %30.17 in10.0 miNW (310°)10.4 mphOvercast
4:51 PM52.0 °F33.1 °F49 %30.17 in10.0 miVariable4.6 mphOvercast
5:51 PM51.1 °F33.1 °F50 %30.19 in10.0 miVariable4.6 mphOvercast
6:51 PM50.0 °F30.9 °F48 %30.20 in10.0 miNNE (20°)6.9 mphOvercast
7:51 PM48.0 °F34.0 °F58 %30.28 in10.0 miNorth (350°)4.6 mphOvercast
8:51 PM46.9 °F28.0 °F48 %30.27 in10.0 miNorth (10°)6.9 mphOvercast
9:51 PM43.0 °F32.0 °F65 %30.30 in10.0 miNorth (360°)9.2 mph16.1 mph0.00 inOvercast
10:51 PM39.0 °F35.1 °F86 %30.30 in6.0 miNE (50°)9.2 mph0.07 inRainLight Rain
11:51 PM37.9 °F33.1 °F83 %30.31 in10.0 miVariable3.5 mph0.02 inOvercast
Hourly data recorded from KNYC, located miles away from New York - Central Park, New York







STORIES FROM OUR PARTNERS